Other Surface Observations
Issued by NWS Charleston, SC

Home | Current Version | Previous Version | Text Only | Print | Product List | Glossary On
Versions: 1 2 3 4 5 6 7 8 9 10 11 12 13 14 15 16 17 18 19 20 21 22 23 24 25 26 27 28 29 30 31 32 33 34 35 36 37 38 39 40 41 42 43 44 45 46 47 48 49 50
000
SXUS52 KCHS 270626
OSOCHS

MARINE OBSERVATIONS
NATIONAL WEATHER SERVICE CHARLESTON SC
100 AM EST MON FEB 27 2017

...DOWNTOWN CHARLESTON AND HARBOR...

CITY           SKY/WX    TMP DP  RH WIND       PRES   REMARKS
WATERFRONT PRK   N/A     58  48  69 VRB2      30.31R

...LAKE MOULTRIE...

CITY           SKY/WX    TMP DP  RH WIND       PRES   REMARKS
PINOPOLIS        N/A     46  41  81 VRB2      30.25R

...LAKE AND SUPPLEMENTAL COASTAL OBSERVATIONS...

STATION/POSITION TIME  TEMP    WIND        PRES    WAVE   SWELL
                       AIR SEA DIR/SP/G            HT/PER HT/PER/DIR
                 (UTC) (F)     (DEG/KT/KT) (MB)    (FT/S) (FT/S/D)
FORT PULASKI     0600   58 63  140/  5/  5 1026.3
SAPELO ISLAND    0600   46     100/  4     1026.0
WINYAH BAY       0530   42     310/  1     1027.0S
LAKE MURRAY      0620   51     120/  2/  7 1025.1
ACE BASIN NERRS  0545   46        CALM     1026.0S


...C-MAN AND BUOY OBSERVATIONS...

STATION/POSITION TIME  TEMP    WIND        PRES    WAVE   SWELL
                       AIR SEA DIR/SP/G            HT/PER HT/PER/DIR
                 (UTC) (F)     (DEG/KT/KT) (MB)    (FT/S) (FT/S/D)
BUOY 41004       0550   61 69   60/  8/ 10 1026.6R   3/ 9   3/120/ 9
BUOY 41008       0550   62 62   90/ 10/ 12 1025.8R   2/ 9   2/ 90/ 9
FOLLY BEACH CMAN 0600   59     110/  7/  8 1027.3R
CAPERS NS BUOY   0608   59 61  110/  6/  8 1026.8R
FRIPP NS BUOY    0608   60 61  110/  8/ 10 1026.2R
5E ST. MARYS GA  0600      64                N/A     2/10


STATION/POSITION TIME  TEMP    WIND        PRES    WAVE   SWELL
                       AIR SEA DIR/SP/G            HT/PER HT/PER/DIR
                 (UTC) (F)     (DEG/KT/KT) (MB)    (FT/S) (FT/S/D)
FRYING PAN BUOY  0610   59 69   10/  6/ 10 1027.5
BUOY 41025       0550   56 71  350/  4/ 12 1028.0R   4/ 9   3/130/ 9
CAPE LOOKOUT NC  0600   53      20/  5/  5 1027.6R
BUOY 41002       0550   64 71   30/ 10/ 14 1026.3R   5/ 7   5/320/ 7
BUOY 41010       NOT AVBL
ST AUGUSTINE FL  0600   67 65   90/ 11/ 12 1025.2S

$$




USA.gov is the U.S. government's official web portal to all federal, state and local government web resources and services.